TimeEDT,TemperatureF,Dew PointF,Humidity,Sea Level PressureIn,VisibilityMPH,Wind Direction,Wind SpeedMPH,Gust SpeedMPH,PrecipitationIn,Events,Conditions,WindDirDegrees,DateUTC
12:15 AM,62.6,62.6,100,29.78,4.0,NNE,5.8,-,0.13,Rain,Heavy Rain,20,2013-09-22 04:15:00
12:35 AM,61.9,61.9,100,29.79,5.0,NE,3.5,-,0.22,Rain,Rain,40,2013-09-22 04:35:00
12:55 AM,61.7,61.7,100,29.77,5.0,NNE,6.9,-,0.31,Rain,Heavy Rain,20,2013-09-22 04:55:00
1:15 AM,61.2,61.2,100,29.77,7.0,NNE,4.6,-,0.06,Rain,Rain,30,2013-09-22 05:15:00
1:35 AM,61.0,61.0,100,29.77,7.0,NNE,8.1,-,0.11,Rain,Heavy Rain,20,2013-09-22 05:35:00
1:55 AM,61.0,61.0,100,29.77,7.0,North,6.9,-,0.18,Rain,Heavy Rain,10,2013-09-22 05:55:00
2:15 AM,60.8,60.8,100,29.76,10.0,North,5.8,-,0.03,Rain,Rain,10,2013-09-22 06:15:00
2:35 AM,61.0,61.0,100,29.76,10.0,NNE,5.8,-,0.05,Rain,Rain,20,2013-09-22 06:35:00
2:55 AM,60.8,60.8,100,29.75,7.0,NNE,5.8,-,0.08,Rain,Rain,20,2013-09-22 06:55:00
3:15 AM,61.0,61.0,100,29.75,10.0,North,5.8,-,0.01,Rain,Light Rain,360,2013-09-22 07:15:00
3:35 AM,61.0,61.0,100,29.75,10.0,NNW,4.6,-,0.02,Rain,Light Rain,340,2013-09-22 07:35:00
3:55 AM,61.2,61.2,100,29.76,10.0,NNW,4.6,-,0.02,,Overcast,340,2013-09-22 07:55:00
4:15 AM,61.3,61.3,100,29.76,10.0,North,3.5,-,N/A,,Overcast,360,2013-09-22 08:15:00
4:35 AM,61.7,61.7,100,29.76,10.0,North,4.6,-,N/A,,Overcast,360,2013-09-22 08:35:00
4:55 AM,61.7,61.7,100,29.77,10.0,NNW,5.8,-,N/A,Rain,Light Rain,340,2013-09-22 08:55:00
5:15 AM,61.9,61.9,100,29.78,10.0,North,4.6,-,N/A,Rain,Rain,360,2013-09-22 09:15:00
5:35 AM,62.4,62.4,100,29.78,10.0,North,6.9,-,N/A,Rain,Light Rain,350,2013-09-22 09:35:00
5:55 AM,62.2,62.2,100,29.78,10.0,North,5.8,-,N/A,,Light Drizzle,360,2013-09-22 09:55:00
6:15 AM,62.2,60.8,95,29.78,10.0,North,8.1,-,N/A,,Overcast,350,2013-09-22 10:15:00
6:35 AM,62.2,60.1,93,29.79,10.0,North,8.1,-,N/A,,Overcast,360,2013-09-22 10:35:00
6:55 AM,61.9,59.2,91,29.79,10.0,North,6.9,-,N/A,,Scattered Clouds,350,2013-09-22 10:55:00
7:15 AM,61.2,58.8,92,29.81,10.0,North,6.9,-,N/A,,Clear,360,2013-09-22 11:15:00
7:35 AM,60.8,58.3,91,29.81,10.0,North,8.1,-,N/A,,Clear,350,2013-09-22 11:35:00
7:55 AM,61.0,58.5,91,29.82,10.0,North,6.9,-,N/A,,Clear,350,2013-09-22 11:55:00
8:15 AM,61.7,57.9,87,29.83,10.0,North,8.1,-,N/A,,Clear,360,2013-09-22 12:15:00
8:35 AM,62.2,57.7,85,29.84,10.0,North,10.4,-,N/A,,Clear,350,2013-09-22 12:35:00
8:55 AM,63.0,57.7,83,29.85,10.0,North,9.2,-,N/A,,Clear,350,2013-09-22 12:55:00
9:15 AM,64.0,57.7,80,29.85,10.0,North,11.5,16.1,N/A,,Clear,360,2013-09-22 13:15:00
9:35 AM,64.9,57.6,77,29.86,10.0,North,10.4,16.1,N/A,,Clear,360,2013-09-22 13:35:00
9:55 AM,66.2,57.2,73,29.86,10.0,North,12.7,19.6,N/A,,Clear,360,2013-09-22 13:55:00
10:15 AM,67.1,57.2,70,29.86,10.0,NNE,5.8,-,N/A,,Clear,20,2013-09-22 14:15:00
10:35 AM,68.2,56.5,66,29.87,10.0,NNE,10.4,13.8,N/A,,Clear,20,2013-09-22 14:35:00
10:55 AM,69.6,56.7,63,29.87,10.0,NNE,9.2,17.3,N/A,,Clear,20,2013-09-22 14:55:00
11:15 AM,69.3,55.4,61,29.86,10.0,North,15.0,18.4,N/A,,Clear,10,2013-09-22 15:15:00
11:35 AM,70.3,55.9,60,29.86,10.0,North,11.5,18.4,N/A,,Clear,360,2013-09-22 15:35:00
11:55 AM,70.9,54.9,57,29.87,10.0,North,11.5,-,N/A,,Clear,10,2013-09-22 15:55:00
12:15 PM,71.4,53.8,54,29.86,10.0,North,11.5,17.3,N/A,,Clear,10,2013-09-22 16:15:00
12:35 PM,72.0,54.0,53,29.87,10.0,NE,6.9,16.1,N/A,,Clear,40,2013-09-22 16:35:00
12:55 PM,72.5,54.9,54,29.86,10.0,North,11.5,-,N/A,,Clear,360,2013-09-22 16:55:00
1:15 PM,72.9,53.8,51,29.86,10.0,North,11.5,16.1,N/A,,Clear,350,2013-09-22 17:15:00
1:35 PM,73.0,53.8,51,29.86,10.0,North,9.2,-,N/A,,Clear,360,2013-09-22 17:35:00
1:55 PM,73.6,52.5,48,29.85,10.0,NNW,11.5,-,N/A,,Clear,340,2013-09-22 17:55:00
2:15 PM,73.4,53.4,49,29.85,10.0,North,12.7,-,N/A,,Clear,350,2013-09-22 18:15:00
2:35 PM,73.6,53.4,49,29.84,10.0,North,8.1,-,N/A,,Clear,350,2013-09-22 18:35:00
2:55 PM,74.3,53.6,48,29.84,10.0,North,11.5,-,N/A,,Clear,360,2013-09-22 18:55:00
3:15 PM,74.3,53.1,47,29.84,10.0,NNE,6.9,-,N/A,,Clear,30,2013-09-22 19:15:00
3:35 PM,74.3,53.4,48,29.84,10.0,NNE,5.8,-,N/A,,Clear,20,2013-09-22 19:35:00
3:55 PM,74.3,53.8,49,29.84,10.0,NNW,5.8,-,N/A,,Clear,340,2013-09-22 19:55:00
4:15 PM,74.7,53.8,48,29.84,10.0,NNE,5.8,-,N/A,,Clear,20,2013-09-22 20:15:00
4:35 PM,74.5,53.6,48,29.84,10.0,NNE,5.8,-,N/A,,Clear,20,2013-09-22 20:35:00
4:55 PM,74.3,54.7,50,29.84,10.0,North,6.9,-,N/A,,Scattered Clouds,10,2013-09-22 20:55:00
5:15 PM,74.1,54.9,51,29.85,10.0,NE,3.5,-,N/A,,Mostly Cloudy,40,2013-09-22 21:15:00
5:35 PM,73.6,54.9,52,29.86,10.0,NNW,5.8,-,N/A,,Scattered Clouds,340,2013-09-22 21:35:00
5:55 PM,73.8,54.7,51,29.86,10.0,North,3.5,-,N/A,,Scattered Clouds,350,2013-09-22 21:55:00
6:15 PM,72.9,55.6,55,29.86,10.0,North,3.5,-,N/A,,Scattered Clouds,360,2013-09-22 22:15:00
6:35 PM,72.5,56.3,57,29.87,10.0,NNE,3.5,-,N/A,,Scattered Clouds,20,2013-09-22 22:35:00
6:55 PM,70.3,58.8,67,29.87,10.0,Calm,Calm,-,N/A,,Scattered Clouds,0,2013-09-22 22:55:00
7:15 PM,66.4,59.4,78,29.87,10.0,Calm,Calm,-,N/A,,Clear,0,2013-09-22 23:15:00
7:35 PM,64.4,58.8,82,29.88,10.0,Calm,Calm,-,N/A,,Clear,0,2013-09-22 23:35:00
7:55 PM,63.0,58.6,86,29.88,10.0,Calm,Calm,-,N/A,,Clear,0,2013-09-22 23:55:00
8:15 PM,62.1,58.3,87,29.89,10.0,Calm,Calm,-,N/A,,Clear,0,2013-09-23 00:15:00
8:35 PM,61.0,57.7,89,29.89,10.0,Calm,Calm,-,N/A,,Clear,0,2013-09-23 00:35:00
8:55 PM,60.6,57.9,91,29.90,10.0,Calm,Calm,-,N/A,,Clear,0,2013-09-23 00:55:00
9:15 PM,60.1,58.1,93,29.91,10.0,Calm,Calm,-,N/A,,Clear,0,2013-09-23 01:15:00
9:35 PM,59.9,57.6,92,29.91,10.0,Calm,Calm,-,N/A,,Scattered Clouds,0,2013-09-23 01:35:00
9:55 PM,59.4,57.4,93,29.92,10.0,Calm,Calm,-,N/A,,Clear,0,2013-09-23 01:55:00
10:15 PM,59.0,57.2,94,29.92,10.0,Calm,Calm,-,N/A,,Clear,0,2013-09-23 02:15:00
10:35 PM,58.3,57.2,96,29.93,10.0,Calm,Calm,-,N/A,,Clear,0,2013-09-23 02:35:00
10:55 PM,57.9,56.7,96,29.94,10.0,Calm,Calm,-,N/A,,Clear,0,2013-09-23 02:55:00
11:15 PM,57.2,56.3,97,29.94,10.0,Calm,Calm,-,N/A,,Clear,0,2013-09-23 03:15:00
11:35 PM,56.8,55.9,97,29.95,10.0,Calm,Calm,-,N/A,,Clear,0,2013-09-23 03:35:00
11:55 PM,56.7,56.3,99,29.95,10.0,Calm,Calm,-,N/A,,Clear,0,2013-09-23 03:55:00